timestamp,surface_pressure_avg,surface_temp_avg,battery_voltage,lat,long
2018-06-23 00:00:00+00:00,228.8531,8.8,13.05,47.84626,-54.09684
2018-06-23 00:10:00+00:00,227.4748,8.8,13.05,47.84626,-54.09684
2018-06-23 00:20:00+00:00,220.6548,8.9,13.05,47.84626,-54.09684
2018-06-23 00:30:00+00:00,219.518,8.9,13.05,47.84626,-54.09684
2018-06-23 00:40:00+00:00,219.4331,8.7,13.13,47.84626,-54.09684
2018-06-23 00:50:00+00:00,215.6081,8.7,13.13,47.84626,-54.09684
2018-06-23 01:00:00+00:00,216.0698,8.8,13.05,47.84626,-54.09684
2018-06-23 01:10:00+00:00,217.9498,8.7,12.97,47.84626,-54.09684
2018-06-23 01:20:00+00:00,213.1081,8.7,13.05,47.84626,-54.09684
2018-06-23 01:30:00+00:00,206.8648,8.7,13.05,47.84626,-54.09684
2018-06-23 01:40:00+00:00,210.7264,8.6,13.05,47.84626,-54.09684
2018-06-23 01:50:00+00:00,215.6998,8.5,13.05,47.84626,-54.09684
2018-06-23 02:00:00+00:00,211.2148,8.58,13.05,47.84626,-54.09684
2018-06-23 02:10:00+00:00,210.4681,8.69,12.97,47.84626,-54.09684
2018-06-23 02:20:00+00:00,218.7248,8.66,13.05,47.84626,-54.09684
2018-06-23 02:30:00+00:00,220.8331,8.76,13.05,47.84626,-54.09684
2018-06-23 02:40:00+00:00,218.0531,9.0,13.05,47.84626,-54.09684
2018-06-23 02:50:00+00:00,219.7431,8.8,13.05,47.84626,-54.09684
2018-06-23 03:00:00+00:00,225.1214,9.0,13.05,47.84626,-54.09684
2018-06-23 03:10:00+00:00,225.4198,9.3,12.97,47.84626,-54.09684
2018-06-23 03:20:00+00:00,223.1297,9.2,13.05,47.84626,-54.09684
2018-06-23 03:30:00+00:00,222.0681,8.94,13.05,47.84626,-54.09684
2018-06-23 03:40:00+00:00,226.6214,8.6,13.05,47.84626,-54.09684
2018-06-23 03:50:00+00:00,228.2231,8.66,13.05,47.84626,-54.09684
2018-06-23 04:00:00+00:00,230.4681,8.79,12.97,47.84626,-54.09684
2018-06-23 04:10:00+00:00,234.6597,8.6,12.97,47.84626,-54.09684
2018-06-23 04:20:00+00:00,240.3865,8.5,12.97,47.84626,-54.09684
2018-06-23 04:30:00+00:00,240.1048,8.5,12.97,47.84626,-54.09684
2018-06-23 04:40:00+00:00,241.2648,8.6,13.05,47.84626,-54.09684
2018-06-23 04:50:00+00:00,246.8448,8.5,13.05,47.84626,-54.09684
2018-06-23 05:00:00+00:00,252.6781,8.5,12.97,47.84626,-54.09684
2018-06-23 05:10:00+00:00,257.7397,8.4,12.89,47.84626,-54.09684
2018-06-23 05:20:00+00:00,261.838,8.4,12.97,47.84626,-54.09684
2018-06-23 05:30:00+00:00,268.0914,8.36,12.97,47.84626,-54.09684
2018-06-23 05:40:00+00:00,274.8331,8.3,12.97,47.84626,-54.09684
2018-06-23 05:50:00+00:00,283.0547,8.26,13.05,47.84626,-54.09684
2018-06-23 06:00:00+00:00,289.6131,8.2,12.97,47.84626,-54.09684
2018-06-23 06:10:00+00:00,297.1913,8.17,12.89,47.84626,-54.09684
2018-06-23 06:20:00+00:00,302.338,8.1,12.97,47.84626,-54.09684
2018-06-23 06:30:00+00:00,304.0181,8.16,12.97,47.84626,-54.09684
2018-06-23 06:40:00+00:00,306.718,8.2,12.97,47.84626,-54.09684
2018-06-23 06:50:00+00:00,307.9114,8.2,12.97,47.84626,-54.09684
2018-06-23 07:00:00+00:00,308.7362,8.2,12.97,47.84626,-54.09684
2018-06-23 07:10:00+00:00,308.668,8.25,12.89,47.84626,-54.09684
2018-06-23 07:20:00+00:00,311.6197,8.3,12.97,47.84626,-54.09684
2018-06-23 07:30:00+00:00,313.4113,8.3,12.97,47.84626,-54.09684
2018-06-23 07:40:00+00:00,314.548,8.3,12.97,47.84626,-54.09684
2018-06-23 07:50:00+00:00,315.053,8.33,12.97,47.84626,-54.09684
2018-06-23 08:00:00+00:00,319.6797,8.39,12.89,47.84626,-54.09684
2018-06-23 08:10:00+00:00,322.2446,8.37,12.81,47.84626,-54.09684
2018-06-23 08:20:00+00:00,321.0197,8.33,12.89,47.84626,-54.09684
2018-06-23 08:30:00+00:00,318.8613,8.3,12.97,47.84626,-54.09684
2018-06-23 08:40:00+00:00,318.8565,8.24,12.97,47.84626,-54.09684
2018-06-23 08:50:00+00:00,320.0031,8.2,13.05,47.84626,-54.09684
2018-06-23 09:00:00+00:00,319.3663,8.23,12.97,47.84626,-54.09684
2018-06-23 09:10:00+00:00,320.0463,8.28,12.97,47.84626,-54.09684
2018-06-23 09:20:00+00:00,315.8314,8.28,13.05,47.84626,-54.09684
2018-06-23 09:30:00+00:00,309.603,8.34,13.13,47.84626,-54.09684
2018-06-23 09:40:00+00:00,303.9547,8.4,13.21,47.84626,-54.09684
2018-06-23 09:50:00+00:00,303.4147,8.3,13.29,47.84626,-54.09684
2018-06-23 10:00:00+00:00,295.0164,8.3,13.44,47.84626,-54.09684
2018-06-23 10:10:00+00:00,287.9297,8.29,13.68,47.84626,-54.09684
2018-06-23 10:20:00+00:00,284.6663,8.22,14.0,47.84626,-54.09684
2018-06-23 10:30:00+00:00,280.0648,8.2,14.32,47.84626,-54.09684
2018-06-23 10:40:00+00:00,270.2247,8.28,14.56,47.84626,-54.09684
2018-06-23 10:50:00+00:00,261.7531,8.3,14.8,47.84626,-54.09684
2018-06-23 11:00:00+00:00,256.8214,8.35,14.64,47.84626,-54.09684
2018-06-23 11:10:00+00:00,250.1964,8.4,14.56,47.84626,-54.09684
2018-06-23 11:20:00+00:00,240.0047,8.4,15.11,47.84626,-54.09684
2018-06-23 11:30:00+00:00,233.1165,8.4,14.64,47.84626,-54.09684
2018-06-23 11:40:00+00:00,226.1364,8.47,14.96,47.84626,-54.09684
2018-06-23 11:50:00+00:00,219.6981,8.51,14.64,47.84626,-54.09684
2018-06-23 12:00:00+00:00,215.1081,8.58,14.56,47.84626,-54.09684
2018-06-23 12:10:00+00:00,214.2931,8.6,14.56,47.84626,-54.09684
2018-06-23 12:20:00+00:00,212.9547,8.51,14.8,47.84626,-54.09684
2018-06-23 12:30:00+00:00,207.6265,8.5,14.8,47.84626,-54.09684
2018-06-23 12:40:00+00:00,204.2465,8.5,14.8,47.84626,-54.09684
2018-06-23 12:50:00+00:00,205.8615,8.5,14.8,47.84626,-54.09684
2018-06-23 13:00:00+00:00,201.1714,8.5,14.64,47.84626,-54.09684
2018-06-23 13:10:00+00:00,194.6047,8.7,14.64,47.84626,-54.09684
2018-06-23 13:20:00+00:00,198.0098,8.7,14.72,47.84626,-54.09684
2018-06-23 13:30:00+00:00,201.0697,8.5,14.64,47.84626,-54.09684
2018-06-23 13:40:00+00:00,197.5965,8.4,14.72,47.84626,-54.09684
2018-06-23 13:50:00+00:00,199.8648,8.4,14.64,47.84626,-54.09684
2018-06-23 14:00:00+00:00,205.7264,8.3,14.56,47.84626,-54.09684
2018-06-23 14:10:00+00:00,204.0414,8.29,14.56,47.84626,-54.09684
2018-06-23 14:20:00+00:00,204.7314,8.3,14.64,47.84626,-54.09684
2018-06-23 14:30:00+00:00,212.0114,8.3,14.64,47.84626,-54.09684
2018-06-23 14:40:00+00:00,210.9865,8.3,14.64,47.84626,-54.09684
2018-06-23 14:50:00+00:00,205.4247,8.3,14.64,47.84626,-54.09684
2018-06-23 15:00:00+00:00,208.1448,8.3,14.56,47.84626,-54.09684
2018-06-23 15:10:00+00:00,211.3581,8.2,14.48,47.84626,-54.09684
2018-06-23 15:20:00+00:00,211.5481,8.1,14.56,47.84626,-54.09684
2018-06-23 15:30:00+00:00,216.3514,8.06,14.56,47.84626,-54.09684
2018-06-23 15:40:00+00:00,221.4998,8.0,14.56,47.84626,-54.09684
2018-06-23 15:50:00+00:00,219.5547,8.12,14.56,47.84626,-54.09684
2018-06-23 16:00:00+00:00,221.6481,8.43,14.48,47.84626,-54.09684
2018-06-23 16:10:00+00:00,230.3848,8.5,14.4,47.84626,-54.09684
2018-06-23 16:20:00+00:00,234.8081,8.4,14.48,47.84626,-54.09684
2018-06-23 16:30:00+00:00,234.6281,8.47,14.48,47.84626,-54.09684
2018-06-23 16:40:00+00:00,238.2497,8.52,14.48,47.84626,-54.09684
2018-06-23 16:50:00+00:00,246.8714,8.6,14.48,47.84626,-54.09684
2018-06-23 17:00:00+00:00,250.6064,8.5,14.32,47.84626,-54.09684
2018-06-23 17:10:00+00:00,252.4747,8.5,14.24,47.84626,-54.09684
2018-06-23 17:20:00+00:00,257.3264,8.47,14.32,47.84626,-54.09684
2018-06-23 17:30:00+00:00,267.6614,8.4,14.32,47.84626,-54.09684
2018-06-23 17:40:00+00:00,272.7264,8.4,14.32,47.84626,-54.09684
2018-06-23 17:50:00+00:00,277.6198,8.49,14.24,47.84626,-54.09684
2018-06-23 18:00:00+00:00,284.5247,8.4,14.16,47.84626,-54.09684
2018-06-23 18:10:00+00:00,295.4264,8.35,14.08,47.84626,-54.09684
2018-06-23 18:20:00+00:00,302.0747,8.34,14.16,47.84626,-54.09684
2018-06-23 18:30:00+00:00,307.368,8.4,14.24,47.84626,-54.09684
2018-06-23 18:40:00+00:00,314.418,8.5,14.24,47.84626,-54.09684
2018-06-23 18:50:00+00:00,319.7413,8.4,14.24,47.84626,-54.09684
2018-06-23 19:00:00+00:00,318.0663,8.4,14.16,47.84626,-54.09684
2018-06-23 19:10:00+00:00,320.733,8.37,14.08,47.84626,-54.09684
2018-06-23 19:20:00+00:00,326.468,8.39,14.16,47.84626,-54.09684
2018-06-23 19:30:00+00:00,328.6646,8.65,14.16,47.84626,-54.09684
2018-06-23 19:40:00+00:00,328.8463,8.9,14.24,47.84626,-54.09684
2018-06-23 19:50:00+00:00,333.588,8.9,14.16,47.84626,-54.09684
2018-06-23 20:00:00+00:00,340.9097,8.67,14.08,47.84626,-54.09684
2018-06-23 20:10:00+00:00,341.503,8.85,14.0,47.84626,-54.09684
2018-06-23 20:20:00+00:00,338.1496,9.27,14.08,47.84626,-54.09684
2018-06-23 20:30:00+00:00,339.3796,9.35,14.08,47.84626,-54.09684
2018-06-23 20:40:00+00:00,341.0663,9.2,14.16,47.84626,-54.09684
2018-06-23 20:50:00+00:00,338.3996,8.8,14.16,47.84626,-54.09684
2018-06-23 21:00:00+00:00,334.3463,8.8,14.08,47.84626,-54.09684
2018-06-23 21:10:00+00:00,331.5313,8.76,14.0,47.84626,-54.09684
2018-06-23 21:20:00+00:00,327.0729,8.9,14.0,47.84626,-54.09684
2018-06-23 21:30:00+00:00,320.433,8.9,14.0,47.84626,-54.09684
2018-06-23 21:40:00+00:00,319.3913,8.9,14.0,47.84626,-54.09684
2018-06-23 21:50:00+00:00,321.5947,8.99,14.0,47.84626,-54.09684
2018-06-23 22:00:00+00:00,319.358,9.1,13.92,47.84626,-54.09684
2018-06-23 22:10:00+00:00,314.0397,9.2,13.84,47.84626,-54.09684
2018-06-23 22:20:00+00:00,310.268,9.2,13.84,47.84626,-54.09684
2018-06-23 22:30:00+00:00,308.8564,9.38,13.76,47.84626,-54.09684
2018-06-23 22:40:00+00:00,302.3413,9.7,13.76,47.84626,-54.09684
2018-06-23 22:50:00+00:00,293.8064,9.79,13.76,47.84626,-54.09684
2018-06-23 23:00:00+00:00,289.0847,9.8,13.68,47.84626,-54.09684
2018-06-23 23:10:00+00:00,286.4529,9.8,13.53,47.84626,-54.09684
2018-06-23 23:20:00+00:00,278.6097,9.7,13.44,47.84626,-54.09684
2018-06-23 23:30:00+00:00,269.3547,9.76,13.44,47.84626,-54.09684
2018-06-23 23:40:00+00:00,263.1614,9.7,13.44,47.84626,-54.09684
2018-06-23 23:50:00+00:00,256.4631,9.7,13.37,47.84626,-54.09684
